Location: Chanteloup
(48.8560°N, 2.7390°E)
Time: 19:03:52
(UTC+00:00)

NOSS 3-1 (C) - Pass Details

Date: 24 October 2021
Orbit: 717 x 1491 km, 63.4° (Epoch: 25 November)

Event Time Altitude Azimuth Distance (km) Brightness Sun altitude
Rises 18:11:44 0° 217° (SW) 3,193 6.8 -15.3°
Reaches altitude 10° 18:13:57 10° 217° (SW) 2,325 6.0 -15.7°
Maximum altitude 18:19:15 84° 131° (SE) 872 3.2 -16.6°
Enters shadow 18:25:06 12° 43° (NE) 2,570 5.3 -17.5°
